Change the Weather History Date:

Tuesday, July 23, 2013

  Actual Average (KGEV) Record (KGEV)
Temperature  
Mean Temperature 75 °F -  
Max Temperature 82 °F 81 °F 90 °F (1983)
Min Temperature 68 °F 60 °F 51 °F (1966)
Cooling Degree Days 10    
Growing Degree Days 25 (Base 50)    
Moisture  
Dew Point 69 °F    
Average Humidity 84    
Maximum Humidity 100    
Minimum Humidity 58    
Precipitation  
Precipitation 0.00 in - - ()
Sea Level Pressure  
Sea Level Pressure 29.95 in    
Wind  
Wind Speed 10 mph (West)    
Max Wind Speed 15 mph    
Max Gust Speed 22 mph    
Visibility 9 miles    
Events Rain    
Averages and records for this station are not official NWS values.
T = Trace of Precipitation, MM = Missing Value Source: NWS Daily Summary

Daily Weather History Graph

Daily Weather History Graph

Search for Another Location

Airport or City:

Trip Planner

Search our weather history database for the weather conditions in past years. The results will help you decide how hot, cold, wet, or windy it might be!

Date:

Astronomy

Jul. 23, 2013 Rise Set
Actual Time 6:23 AM EDT 8:39 PM EDT
Civil Twilight 5:54 AM EDT 9:08 PM EDT
Nautical Twilight 5:18 AM EDT 9:44 PM EDT
Astronomical Twilight 4:39 AM EDT 10:23 PM EDT
Moon 9:10 PM EDT (7/23) 7:27 AM EDT (7/23)
Length of Visible Light 15h 14m
Length of Day
14h 15m
Full, 99% of the Moon is Illuminated
Jul 23
Full
Jul 29
Last Quarter
Aug 6
New
Aug 14
First Quarter
Aug 20
Full

Hourly Weather History & Observations

Time (EDT) Temp. Heat Index Dew Point Humidity Pressure Visibility Wind Dir Wind Speed Gust Speed Precip Events Conditions
12:15 AM 68.9 °F - 68.9 °F 100% 29.97 in 10.0 mi WSW 10.4 mph - N/A   Light Drizzle
12:35 AM 68.9 °F - 68.9 °F 100% 29.98 in 7.0 mi WSW 10.4 mph - N/A   Drizzle
12:55 AM 69.1 °F - 69.1 °F 100% 29.98 in 7.0 mi West 10.4 mph - N/A   Drizzle
1:15 AM 69.1 °F - 69.1 °F 100% 29.97 in 7.0 mi WSW 8.1 mph - N/A   Drizzle
1:35 AM 69.4 °F - 69.4 °F 100% 29.97 in 10.0 mi West 10.4 mph - N/A   Overcast
1:55 AM 69.4 °F - 69.4 °F 100% 29.96 in 10.0 mi West 8.1 mph - N/A   Overcast
2:15 AM 69.3 °F - 69.3 °F 100% 29.96 in 10.0 mi West 10.4 mph - N/A   Overcast
2:35 AM 69.4 °F - 69.4 °F 100% 29.95 in 10.0 mi West 11.5 mph 17.3 mph N/A   Overcast
2:55 AM 69.4 °F - 69.4 °F 100% 29.95 in 10.0 mi West 9.2 mph - N/A   Overcast
3:15 AM 69.3 °F - 69.3 °F 100% 29.94 in 10.0 mi WSW 8.1 mph - N/A   Overcast
3:35 AM 68.9 °F - 68.9 °F 100% 29.94 in 10.0 mi West 8.1 mph - N/A   Mostly Cloudy
3:55 AM 69.1 °F - 69.1 °F 100% 29.93 in 10.0 mi West 8.1 mph - N/A   Overcast
4:15 AM 69.3 °F - 69.3 °F 100% 29.93 in 10.0 mi West 10.4 mph - N/A   Overcast
4:35 AM 69.4 °F - 69.4 °F 100% 29.93 in 10.0 mi West 13.8 mph - N/A   Overcast
4:55 AM 69.4 °F - 69.4 °F 100% 29.94 in 7.0 mi West 11.5 mph - N/A Rain Rain
5:15 AM 69.6 °F - 69.6 °F 100% 29.93 in 10.0 mi West 9.2 mph - N/A   Overcast
5:35 AM 69.8 °F - 69.8 °F 100% 29.93 in 10.0 mi WSW 8.1 mph - N/A   Overcast
5:55 AM 69.4 °F - 69.4 °F 100% 29.93 in 7.0 mi WSW 13.8 mph - N/A   Overcast
6:15 AM 69.4 °F - 69.4 °F 100% 29.94 in 7.0 mi WSW 10.4 mph - N/A   Overcast
6:35 AM 69.6 °F - 69.6 °F 100% 29.94 in 4.0 mi WSW 11.5 mph - N/A   Overcast
6:55 AM 69.8 °F - 69.8 °F 100% 29.94 in 4.0 mi West 12.7 mph - N/A   Overcast
7:15 AM 69.8 °F - 69.8 °F 100% 29.95 in 4.0 mi WSW 12.7 mph - N/A   Overcast
7:35 AM 70.0 °F - 70.0 °F 100% 29.96 in 4.0 mi WSW 13.8 mph - N/A   Drizzle
7:55 AM 70.2 °F - 70.2 °F 100% 29.97 in 7.0 mi WSW 8.1 mph - N/A   Overcast
8:15 AM 70.9 °F - 70.9 °F 100% 29.96 in 10.0 mi WSW 10.4 mph - N/A   Overcast
8:35 AM 70.7 °F - 70.7 °F 100% 29.96 in 5.0 mi WSW 10.4 mph - N/A   Overcast
8:55 AM 71.4 °F - 71.4 °F 100% 29.96 in 7.0 mi WSW 9.2 mph - N/A   Overcast
9:15 AM 71.8 °F - 71.8 °F 100% 29.96 in 10.0 mi WSW 11.5 mph 16.1 mph N/A   Overcast
9:35 AM 72.3 °F - 72.3 °F 100% 29.96 in 10.0 mi WSW 9.2 mph 17.3 mph N/A   Overcast
9:55 AM 73.4 °F - 72.0 °F 95% 29.95 in 10.0 mi West 12.7 mph 18.4 mph N/A   Mostly Cloudy
10:15 AM 74.3 °F - 71.6 °F 91% 29.96 in 10.0 mi West 11.5 mph - N/A   Overcast
10:35 AM 76.1 °F - 69.4 °F 80% 29.96 in 10.0 mi West 11.5 mph 19.6 mph N/A   Mostly Cloudy
10:55 AM 77.0 °F - 67.3 °F 72% 29.96 in 10.0 mi WNW 10.4 mph 19.6 mph N/A   Scattered Clouds
11:15 AM 77.2 °F - 69.8 °F 78% 29.96 in 10.0 mi West 10.4 mph - N/A   Mostly Cloudy
11:35 AM 78.4 °F - 68.5 °F 72% 29.97 in 10.0 mi West 12.7 mph 20.7 mph N/A   Scattered Clouds
11:55 AM 78.3 °F - 69.4 °F 74% 29.97 in 10.0 mi West 11.5 mph 17.3 mph N/A   Scattered Clouds
12:15 PM 78.4 °F - 67.3 °F 68% 29.98 in 10.0 mi West 11.5 mph 17.3 mph N/A   Mostly Cloudy
12:35 PM 79.2 °F - 67.1 °F 66% 29.98 in 10.0 mi West 13.8 mph 21.9 mph N/A   Scattered Clouds
12:55 PM 80.8 °F 83.3 °F 67.5 °F 64% 29.98 in 10.0 mi West 11.5 mph 18.4 mph N/A   Scattered Clouds
1:15 PM 80.4 °F 82.1 °F 64.6 °F 58% 29.97 in 10.0 mi West 12.7 mph 20.7 mph N/A   Scattered Clouds
1:35 PM 80.1 °F 82.1 °F 66.2 °F 62% 29.97 in 10.0 mi West 11.5 mph 19.6 mph N/A   Mostly Cloudy
1:55 PM 81.0 °F 83.6 °F 67.6 °F 64% 29.96 in 10.0 mi West 13.8 mph 20.7 mph N/A   Scattered Clouds
2:15 PM 81.5 °F 83.7 °F 66.2 °F 60% 29.96 in 10.0 mi West 8.1 mph 17.3 mph N/A   Scattered Clouds
2:35 PM 81.0 °F 83.2 °F 66.6 °F 61% 29.96 in 10.0 mi WNW 10.4 mph - N/A   Scattered Clouds
2:55 PM 81.3 °F 83.6 °F 66.7 °F 61% 29.95 in 10.0 mi West 10.4 mph - N/A   Mostly Cloudy
3:15 PM 81.9 °F 84.2 °F 66.9 °F 60% 29.95 in 10.0 mi West 10.4 mph 18.4 mph N/A   Scattered Clouds
3:35 PM 81.9 °F 83.9 °F 65.7 °F 58% 29.94 in 10.0 mi West 15.0 mph 19.6 mph N/A   Clear
4:15 PM 82.2 °F 84.6 °F 66.7 °F 59% 29.93 in 10.0 mi West 11.5 mph 19.6 mph N/A   Clear
4:35 PM 82.8 °F 85.5 °F 67.8 °F 60% 29.93 in 10.0 mi West 12.7 mph 17.3 mph N/A   Clear
4:55 PM 80.2 °F 83.0 °F 68.4 °F 67% 29.92 in 10.0 mi WSW 9.2 mph - N/A   Scattered Clouds
5:15 PM 79.0 °F - 66.6 °F 66% 29.92 in 10.0 mi West 9.2 mph - N/A   Mostly Cloudy
5:35 PM 81.0 °F 83.3 °F 66.7 °F 62% 29.92 in 10.0 mi West 10.4 mph - N/A   Scattered Clouds
5:55 PM 80.8 °F 83.2 °F 67.1 °F 63% 29.91 in 10.0 mi West 10.4 mph - N/A   Scattered Clouds
6:15 PM 81.0 °F 83.2 °F 66.2 °F 61% 29.90 in 10.0 mi West 5.8 mph - N/A   Clear
6:35 PM 81.0 °F 83.0 °F 65.8 °F 60% 29.90 in 10.0 mi WNW 8.1 mph - N/A   Clear
6:55 PM 79.7 °F - 67.1 °F 65% 29.91 in 10.0 mi West 6.9 mph - N/A   Clear
7:15 PM 80.1 °F 82.4 °F 67.3 °F 65% 29.91 in 10.0 mi West 8.1 mph - N/A   Clear
7:35 PM 79.2 °F - 66.7 °F 66% 29.91 in 10.0 mi West 8.1 mph - N/A   Clear
7:55 PM 78.1 °F - 67.3 °F 69% 29.92 in 10.0 mi West 9.2 mph - N/A   Clear
8:15 PM 77.0 °F - 67.3 °F 72% 29.91 in 10.0 mi West 10.4 mph - N/A   Clear
8:35 PM 76.3 °F - 66.9 °F 73% 29.91 in 10.0 mi West 8.1 mph - N/A   Clear
8:55 PM 75.2 °F - 67.1 °F 76% 29.92 in 10.0 mi West 8.1 mph - N/A   Clear
9:15 PM 75.0 °F - 67.1 °F 76% 29.92 in 10.0 mi WNW 5.8 mph - N/A   Clear
9:35 PM 73.6 °F - 67.6 °F 82% 29.93 in 10.0 mi WSW 3.5 mph - N/A   Clear
9:55 PM 72.1 °F - 68.0 °F 87% 29.94 in 10.0 mi SSW 3.5 mph - N/A   Clear
10:15 PM 72.1 °F - 68.5 °F 88% 29.94 in 10.0 mi WSW 4.6 mph - N/A   Clear
10:35 PM 71.6 °F - 70.3 °F 96% 29.94 in 10.0 mi West 8.1 mph - N/A   Clear
10:55 PM 71.1 °F - 71.1 °F 100% 29.94 in 7.0 mi WSW 6.9 mph - N/A   Clear
11:15 PM 71.1 °F - 71.1 °F 100% 29.95 in 7.0 mi WSW 8.1 mph - N/A   Clear
11:35 PM 71.2 °F - 71.2 °F 100% 29.95 in 7.0 mi WSW 8.1 mph - N/A   Clear
11:55 PM 71.4 °F - 71.4 °F 100% 29.95 in 7.0 mi WSW 8.1 mph - N/A   Mostly Cloudy